Regional Weather Roundup
Issued by NWS

Home | Current Version | Previous Version | Graphics & Text | Print | Product List | Glossary On
Versions: 1 2 3 4 5 6 7 8 9 10 11 12 13 14 15 16 17 18 19 20 21 22 23 24 25 26 27 28 29 30 31 32 33 34 35 36 37 38 39 40 41 42 43 44 45 46 47 48 49 50
000
ASUS43 KMKX 220000
RWRWI

WISCONSIN REGIONAL WEATHER ROUNDUP
NATIONAL WEATHER SERVICE MILWAUKEE/SULLIVAN WI
600 PM CST SUN DEC 21 2014

NOTE: "FAIR" INDICATES FEW OR NO CLOUDS BELOW 12,000 FEET WITH NO
SIGNIFICANT WEATHER AND/OR OBSTRUCTIONS TO VISIBILITY.

WIZ001-002-006>008-014>016-023>028-220100-
NORTHWEST WISCONSIN

CITY           SKY/WX    TMP DP  RH WIND       PRES   REMARKS
SUPERIOR ARPT  CLOUDY    34  32  94 CALM      29.77S
ASHLAND        LGT SNOW  32  32 100 CALM      29.81F FOG
6HR MIN TEMP:  32; 6HR MAX TEMP:  34; 6HR PCP:  0.10;

HAYWARD        LGT SNOW  34  31  88 S9        29.78S FOG     WCI  27
6HR MIN TEMP:  32; 6HR MAX TEMP:  34; 6HR PCP:  0.07;

SIREN          MIX PCPN  34  33  96 S7        29.76S WCI  28
CUMBERLAND     LGT SNOW  32  32 100 SE8       29.77S WCI  25
RICE LAKE      LGT SNOW  33  32  98 SE7       29.79F WCI  27
CHETEK         LGT RAIN  33  33  99 SE8       29.79S WCI  26
LADYSMITH      LGT RAIN  34  33  96 SE7       29.83S WCI  28
EAU CLAIRE     MIX PCPN  36  34  92 S9        29.80F WCI  29
6HR MIN TEMP:  33; 6HR MAX TEMP:  37; 6HR PCP:  0.02;

MENOMONIE      DRIZZLE   37  36  99 SE9       29.80S WCI  30
NEW RICHMOND   CLOUDY    35  35 100 S9        29.76F FOG     WCI  27
OSCEOLA        LGT RAIN  35  35 100 SE8       29.78S WCI  28
$$

WIZ003>005-009-010-017-018-220100-
NORTH CENTRAL WISCONSIN

CITY           SKY/WX    TMP DP  RH WIND       PRES   REMARKS
MANITOWISH WTR LGT SNOW  32  32 100 S12       29.82S WCI  23
ARBOR VITAE    LGT SNOW  34  32  93 S10       29.83F WCI  26
WOODRUFF       LGT SNOW  34  32  93 S10       29.83F WCI  26
RHINELANDER    LGT SNOW  32  30  92 S14       29.86F FOG     WCI  22
6HR MIN TEMP:  29; 6HR MAX TEMP:  32; 6HR PCP:  0.04;

EAGLE RIVER    LGT SNOW  32  32 100 S8        29.85F WCI  25
LAND O LAKES   LGT SNOW  33  32  98 S12       29.85F WCI  24
PHILLIPS       LGT SNOW  32  32  99 S9        29.81S WCI  25
TOMAHAWK       LGT RAIN  32  31  96 S6        29.86F WCI  26
MEDFORD        LGT RAIN  32  32 100 SE14G20   29.84S WCI  22
MERRILL        LGT SNOW  33  33 100 SE10G16   29.88S WCI  24
$$

WIZ029-030-035-036-043>047-220100-
CENTRAL WISCONSIN

CITY           SKY/WX    TMP DP  RH WIND       PRES   REMARKS
WAUSAU         CLOUDY    33  32  96 S15       29.88F FOG     WCI  23
6HR MIN TEMP:  31; 6HR MAX TEMP:  34; 6HR PCP:  0.01;

MOSINEE        CLOUDY    32  32 100 SE12G17   29.90F FOG     WCI  23
MARSHFIELD     CLOUDY    34  32  92 S13       29.87S FOG     WCI  25
6HR MIN TEMP:  33; 6HR MAX TEMP:  34; 6HR PCP: TRACE;

STEVENS POINT  DRIZZLE   32  31  98 S8        29.93S WCI  25
WAUPACA        CLOUDY    36  33  89 SE9       29.97R FOG     WCI  29
WAUTOMA        NOT AVBL
WISC RAPIDS    CLOUDY    34  32  92 S8        29.92S FOG     WCI  27
6HR MIN TEMP:  33; 6HR MAX TEMP:  35; 6HR PCP: TRACE;

CAMP DOUGLAS   NOT AVBL
$$

WIZ011>013-019>022-031-037>040-048>050-220100-
NORTHEAST WISCONSIN

CITY           SKY/WX    TMP DP  RH WIND       PRES   REMARKS
ANTIGO         CLOUDY    31  31 100 S10       29.91S FOG     WCI  22
SHAWANO        CLOUDY    36  33  87 S7        29.97F FOG     WCI  30
OCONTO         CLOUDY    34  33  96 S8        30.00F WCI  27
STURGEON BAY   CLOUDY    36  32  87 S13G21    30.03S WCI  27
6HR MIN TEMP:  36; 6HR MAX TEMP:  37;

GREEN BAY      CLOUDY    35  31  85 S14       30.00S WCI  26
6HR MIN TEMP:  34; 6HR MAX TEMP:  36;

MANITOWOC      NOT AVBL
APPLETON       CLOUDY    34  32  93 S14       29.99S FOG     WCI  24
CLINTONVILLE   CLOUDY    34  32  93 S9        29.97S FOG     WCI  26
OSHKOSH        CLOUDY    35  30  82 S12       29.99S WCI  27
6HR MIN TEMP:  35; 6HR MAX TEMP:  36;

$$

WIZ032>034-041-042-053>061-220100-
SOUTHWEST WISCONSIN

CITY           SKY/WX    TMP DP  RH WIND       PRES   REMARKS
LA CROSSE      LGT RAIN  39  36  89 S17       29.85F WCI  30
6HR MIN TEMP:  38; 6HR MAX TEMP:  39; 6HR PCP: TRACE;

SPARTA         CLOUDY    37  35  96 S10       29.89F FOG     WCI  29
VIROQUA        CLOUDY    35  35 100 S15       29.87S WCI  26
BOSCOBEL       CLOUDY    39  33  79 VRB7G16   29.92F WCI  34
6HR MIN TEMP:  39; 6HR MAX TEMP:  39;

PRAIRIE DU CHI CLOUDY    39  33  80 SE8       29.91R WCI  33
PLATTEVILLE    CLOUDY    36  33  89 SE15G22   29.94S WCI  27
$$

WIZ056-057-062-063-064-067-068-220100-
SOUTH CENTRAL WISCONSIN

CITY           SKY/WX    TMP DP  RH WIND       PRES   REMARKS
REEDSBURG      CLOUDY    35  33  93 S8G16     29.93S WCI  29
BARABOO/DELLS  CLOUDY    35  32  90 S16       29.93S FOG     WCI  25
LONE ROCK      NOT AVBL
MINERAL POINT  CLOUDY    36  34  93 SE16G22   29.93S WCI  26
MADISON        CLOUDY    36  31  82 S16       29.97F WCI  26
6HR MIN TEMP:  34; 6HR MAX TEMP:  36;

MIDDLETON      CLOUDY    37  33  82 S9        29.97S WCI  31
WATERTOWN      CLOUDY    35  32  90 S10G17    30.00S WCI  27
MONROE         CLOUDY    34  32  93 S16       29.97S WCI  23
JANESVILLE     CLOUDY    37  30  75 S15G21    30.01S WCI  28
$$

WIZ051-052-058>065-066-070>072-220100-
SOUTHEAST WISCONSIN

CITY           SKY/WX    TMP DP  RH WIND       PRES   REMARKS
MILWAUKEE      MOCLDY    36  29  75 S13       30.06S WCI  27
6HR MIN TEMP:  36; 6HR MAX TEMP:  37;

WAUKESHA       CLOUDY    34  28  80 SE12      30.04S WCI  25
MILWAUKEE/TIMM CLOUDY    36  28  75 S9G16     30.06R WCI  29
RACINE         CLOUDY    36  30  79 S12       30.08S WCI  28
6HR MIN TEMP:  36; 6HR MAX TEMP:  37;

BURLINGTON     CLOUDY    34  29  82 S10       30.04S WCI  26
KENOSHA        CLOUDY    36  29  75 S10       30.06F WCI  28
6HR MIN TEMP:  35; 6HR MAX TEMP:  37;

FOND DU LAC    CLOUDY    36  30  79 S16       29.99S WCI  26
6HR MIN TEMP:  35; 6HR MAX TEMP:  36;

SHEBOYGAN      CLOUDY    35  30  82 S14       30.03S WCI  26
6HR MIN TEMP:  35; 6HR MAX TEMP:  36;

WEST BEND      CLOUDY    34  30  86 SE7       30.03R WCI  28
JUNEAU         CLOUDY    34  31  88 SE15G21   30.01R WCI  24
$$

LSZ147-162-220100-
LAKE SUPERIOR

STATION/POSITION TIME  TEMP    WIND        PRES    WAVE
                       AIR SEA DIR/SP/G            HT/PER
                 (UTC) (F)     (DEG/KT/KT) (MB)    (FT/S)
DEVILS ISLAND    2300   33     150/  8/ 11 1010.6F
PORT WING        2300   34     150/  1/  3 1009.1F
SAXON HARBOR     2300   35     170/  2/  9 1009.8
$$

LMZ867-665-643>646-220100-
LAKE MICHIGAN

STATION/POSITION TIME  TEMP    WIND        PRES    WAVE
                       AIR SEA DIR/SP/G            HT/PER
                 (UTC) (F)     (DEG/KT/KT) (MB)    (FT/S)
CHAMBERS ISLAND  2300   37     140/  8/ 14 1016.3F
NORTHPORT PIER   2300   38     160/  9/ 18 1016.9F
SISTER BAY       2313          180/ 15/ 19   N/A
ALGOMA LAKESHORE 2315          240/ 21/ 24   N/A
KEWAUNEE LAKESHO 2300   36     180/ 16/ 18 1016.0F
SHEBOYGAN LAKESH 2300   37 38  180/ 25/ 26 1017.7F
PORT WASHINGTON  2300   37     170/ 14/ 19 1017.9
MILWAUKEE LAKESH 2300   36     160/ 13/ 14   N/A
KENOSHA   LAKESH 2300   36     180/ 13/ 16 1018.3S
$$

TC  - TEMPERATURE IN CELSIUS
VSB - VISIBILITY IN STATUTE MILES
WCI - WIND CHILL INDEX
HX  - HEAT INDEX




USA.gov is the U.S. government's official web portal to all federal, state and local government web resources and services.